,Coso Junction,Coso Junction
,PM10_1HR,PM10_1HR
,UG/M3,UG/M3
Date,Value,Null Code
01-Jul-2022 00:00,8.6,
01-Jul-2022 01:00,7.7,
01-Jul-2022 02:00,6.9,
01-Jul-2022 03:00,9.6,
01-Jul-2022 04:00,10.6,
01-Jul-2022 05:00,13.8,
01-Jul-2022 06:00,9.9,
01-Jul-2022 07:00,8,
01-Jul-2022 08:00,8.5,
01-Jul-2022 09:00,10.1,
01-Jul-2022 10:00,17,
01-Jul-2022 11:00,8.5,
01-Jul-2022 12:00,6.7,
01-Jul-2022 13:00,8,
01-Jul-2022 14:00,14.4,
01-Jul-2022 15:00,11.3,
01-Jul-2022 16:00,16.6,
01-Jul-2022 17:00,13.4,
01-Jul-2022 18:00,10.2,
01-Jul-2022 19:00,12.7,
01-Jul-2022 20:00,13.5,
01-Jul-2022 21:00,14.3,
01-Jul-2022 22:00,16.4,
01-Jul-2022 23:00,18.2,
02-Jul-2022 00:00,15.1,
02-Jul-2022 01:00,31.4,
02-Jul-2022 02:00,19.7,
02-Jul-2022 03:00,15.6,
02-Jul-2022 04:00,14.7,
02-Jul-2022 05:00,16.3,
02-Jul-2022 06:00,16,
02-Jul-2022 07:00,15.6,
02-Jul-2022 08:00,16.9,
02-Jul-2022 09:00,20.5,
02-Jul-2022 10:00,19.2,
02-Jul-2022 11:00,16.6,
02-Jul-2022 12:00,11.7,
02-Jul-2022 13:00,12,
02-Jul-2022 14:00,20.7,
02-Jul-2022 15:00,21.6,
02-Jul-2022 16:00,14.6,
02-Jul-2022 17:00,16.4,
02-Jul-2022 18:00,13,
02-Jul-2022 19:00,10.9,
02-Jul-2022 20:00,13.1,
02-Jul-2022 21:00,9.2,
02-Jul-2022 22:00,12.7,
02-Jul-2022 23:00,11.9,
03-Jul-2022 00:00,14.7,
03-Jul-2022 01:00,12.9,
03-Jul-2022 02:00,11.7,
03-Jul-2022 03:00,10.9,
03-Jul-2022 04:00,13.1,
03-Jul-2022 05:00,10.9,
03-Jul-2022 06:00,8.6,
03-Jul-2022 07:00,8.2,
03-Jul-2022 08:00,6.7,
03-Jul-2022 09:00,9.7,
03-Jul-2022 10:00,7.8,
03-Jul-2022 11:00,9,
03-Jul-2022 12:00,16,
03-Jul-2022 13:00,11.7,
03-Jul-2022 14:00,10.1,
03-Jul-2022 15:00,11.2,
03-Jul-2022 16:00,14.4,
03-Jul-2022 17:00,19.1,
03-Jul-2022 18:00,11.5,
03-Jul-2022 19:00,9.8,
03-Jul-2022 20:00,20.3,
03-Jul-2022 21:00,17.1,
03-Jul-2022 22:00,15,
03-Jul-2022 23:00,13.8,
04-Jul-2022 00:00,14,
04-Jul-2022 01:00,13,
04-Jul-2022 02:00,13.8,
04-Jul-2022 03:00,12.8,
04-Jul-2022 04:00,12.5,
04-Jul-2022 05:00,13.9,
04-Jul-2022 06:00,16.7,
04-Jul-2022 07:00,15.5,
04-Jul-2022 08:00,16,
04-Jul-2022 09:00,16.6,
04-Jul-2022 10:00,15.7,
04-Jul-2022 11:00,16,
04-Jul-2022 12:00,13.9,
04-Jul-2022 13:00,14.7,
04-Jul-2022 14:00,13.6,
04-Jul-2022 15:00,12,
04-Jul-2022 16:00,14.9,
04-Jul-2022 17:00,14,
04-Jul-2022 18:00,13.7,
04-Jul-2022 19:00,14.2,
04-Jul-2022 20:00,15.9,
04-Jul-2022 21:00,17.2,
04-Jul-2022 22:00,16.3,
04-Jul-2022 23:00,17.3,
05-Jul-2022 00:00,16.9,
05-Jul-2022 01:00,13.3,
05-Jul-2022 02:00,15.2,
05-Jul-2022 03:00,14.1,
05-Jul-2022 04:00,14,
05-Jul-2022 05:00,15.3,
05-Jul-2022 06:00,17.5,
05-Jul-2022 07:00,16,
05-Jul-2022 08:00,13.4,
05-Jul-2022 09:00,13.4,
05-Jul-2022 10:00,15.7,
05-Jul-2022 11:00,15.2,
05-Jul-2022 12:00,15.2,
05-Jul-2022 13:00,14.4,
05-Jul-2022 14:00,15.4,
05-Jul-2022 15:00,12.7,
05-Jul-2022 16:00,14.3,
05-Jul-2022 17:00,15.1,
05-Jul-2022 18:00,16.5,
05-Jul-2022 19:00,22,
05-Jul-2022 20:00,21.1,
05-Jul-2022 21:00,20.9,
05-Jul-2022 22:00,20,
05-Jul-2022 23:00,17.2,
06-Jul-2022 00:00,21.3,
06-Jul-2022 01:00,18,
06-Jul-2022 02:00,16.4,
06-Jul-2022 03:00,17.6,
06-Jul-2022 04:00,18.7,
06-Jul-2022 05:00,43.9,
06-Jul-2022 06:00,23.6,
06-Jul-2022 07:00,21.8,
06-Jul-2022 08:00,25,
06-Jul-2022 09:00,21.3,
06-Jul-2022 10:00,18.5,
06-Jul-2022 11:00,17,
06-Jul-2022 12:00,17.3,
06-Jul-2022 13:00,11.4,
06-Jul-2022 14:00,12,
06-Jul-2022 15:00,14.7,
06-Jul-2022 16:00,16.8,
06-Jul-2022 17:00,16.3,
06-Jul-2022 18:00,20.3,
06-Jul-2022 19:00,20,
06-Jul-2022 20:00,15,
06-Jul-2022 21:00,22.6,
06-Jul-2022 22:00,22.9,
06-Jul-2022 23:00,23.4,
07-Jul-2022 00:00,30,
07-Jul-2022 01:00,23.4,
07-Jul-2022 02:00,21.8,
07-Jul-2022 03:00,22.2,
07-Jul-2022 04:00,20.4,
07-Jul-2022 05:00,18.4,
07-Jul-2022 06:00,24.9,
07-Jul-2022 07:00,21.2,
07-Jul-2022 08:00,20.7,
07-Jul-2022 09:00,19.5,
07-Jul-2022 10:00,17.7,
07-Jul-2022 11:00,13.3,
07-Jul-2022 12:00,7.8,
07-Jul-2022 13:00,10.2,
07-Jul-2022 14:00,9.5,
07-Jul-2022 15:00,7.9,
07-Jul-2022 16:00,9.4,
07-Jul-2022 17:00,12.2,
07-Jul-2022 18:00,12.7,
07-Jul-2022 19:00,13.7,
07-Jul-2022 20:00,20.3,
07-Jul-2022 21:00,13.6,
07-Jul-2022 22:00,11.8,
07-Jul-2022 23:00,15.9,
08-Jul-2022 00:00,16.6,
08-Jul-2022 01:00,19.1,
08-Jul-2022 02:00,18.6,
08-Jul-2022 03:00,18.2,
08-Jul-2022 04:00,19.6,
08-Jul-2022 05:00,19.8,
08-Jul-2022 06:00,22.9,
08-Jul-2022 07:00,17.9,
08-Jul-2022 08:00,18.7,
08-Jul-2022 09:00,17.1,
08-Jul-2022 10:00,15.6,
08-Jul-2022 11:00,16.4,
08-Jul-2022 12:00,14.9,
08-Jul-2022 13:00,14.9,
08-Jul-2022 14:00,19.3,
08-Jul-2022 15:00,19.3,
08-Jul-2022 16:00,17.4,
08-Jul-2022 17:00,21.1,
08-Jul-2022 18:00,27.4,
08-Jul-2022 19:00,34.7,
08-Jul-2022 20:00,27.2,
08-Jul-2022 21:00,20.9,
08-Jul-2022 22:00,20.4,
08-Jul-2022 23:00,22.6,
09-Jul-2022 00:00,25.8,
09-Jul-2022 01:00,20.2,
09-Jul-2022 02:00,22.5,
09-Jul-2022 03:00,18,
09-Jul-2022 04:00,25,
09-Jul-2022 05:00,24.1,
09-Jul-2022 06:00,25.1,
09-Jul-2022 07:00,26.6,
09-Jul-2022 08:00,22.3,
09-Jul-2022 09:00,19.5,
09-Jul-2022 10:00,18.4,
09-Jul-2022 11:00,21.6,
09-Jul-2022 12:00,21.9,
09-Jul-2022 13:00,21.9,
09-Jul-2022 14:00,17.2,
09-Jul-2022 15:00,19.7,
09-Jul-2022 16:00,18.1,
09-Jul-2022 17:00,19.4,
09-Jul-2022 18:00,17.5,
09-Jul-2022 19:00,18.8,
09-Jul-2022 20:00,17.4,
09-Jul-2022 21:00,17.5,
09-Jul-2022 22:00,15.5,
09-Jul-2022 23:00,12.7,
10-Jul-2022 00:00,13.4,
10-Jul-2022 01:00,14.3,
10-Jul-2022 02:00,15.8,
10-Jul-2022 03:00,12.1,
10-Jul-2022 04:00,13.2,
10-Jul-2022 05:00,15.4,
10-Jul-2022 06:00,15.7,
10-Jul-2022 07:00,13.4,
10-Jul-2022 08:00,9.5,
10-Jul-2022 09:00,6.4,
10-Jul-2022 10:00,11.9,
10-Jul-2022 11:00,6.9,
10-Jul-2022 12:00,1.5,
10-Jul-2022 13:00,6.1,
10-Jul-2022 14:00,8.7,
10-Jul-2022 15:00,4.5,
10-Jul-2022 16:00,6,
10-Jul-2022 17:00,6.5,
10-Jul-2022 18:00,9.6,
10-Jul-2022 19:00,8.2,
10-Jul-2022 20:00,7.8,
10-Jul-2022 21:00,7.5,
10-Jul-2022 22:00,9.2,
10-Jul-2022 23:00,9.4,
11-Jul-2022 00:00,10.2,
11-Jul-2022 01:00,14.1,
11-Jul-2022 02:00,9.6,
11-Jul-2022 03:00,9.9,
11-Jul-2022 04:00,15.6,
11-Jul-2022 05:00,11.4,
11-Jul-2022 06:00,10.3,
11-Jul-2022 07:00,12.2,
11-Jul-2022 08:00,10.1,
11-Jul-2022 09:00,10,
11-Jul-2022 10:00,8.6,
11-Jul-2022 11:00,21,
11-Jul-2022 12:00,16.5,
11-Jul-2022 13:00,10.9,
11-Jul-2022 14:00,10.4,
11-Jul-2022 15:00,7.1,
11-Jul-2022 16:00,15.9,
11-Jul-2022 17:00,9.7,
11-Jul-2022 18:00,5.7,
11-Jul-2022 19:00,12.7,
11-Jul-2022 20:00,6.8,
11-Jul-2022 21:00,15.2,
11-Jul-2022 22:00,10.5,
11-Jul-2022 23:00,10.5,
12-Jul-2022 00:00,23.3,
12-Jul-2022 01:00,25.8,
12-Jul-2022 02:00,16.4,
12-Jul-2022 03:00,15.8,
12-Jul-2022 04:00,18.5,
12-Jul-2022 05:00,23.2,
12-Jul-2022 06:00,28.8,
12-Jul-2022 07:00,,AX
12-Jul-2022 08:00,,AX
12-Jul-2022 09:00,,AX
12-Jul-2022 10:00,23.4,
12-Jul-2022 11:00,17.4,
12-Jul-2022 12:00,17.8,
12-Jul-2022 13:00,12.9,
12-Jul-2022 14:00,11,
12-Jul-2022 15:00,8,
12-Jul-2022 16:00,18.9,
12-Jul-2022 17:00,11,
12-Jul-2022 18:00,20.2,
12-Jul-2022 19:00,19,
12-Jul-2022 20:00,23,
12-Jul-2022 21:00,17.9,
12-Jul-2022 22:00,19.9,
12-Jul-2022 23:00,27.1,
13-Jul-2022 00:00,25.6,
13-Jul-2022 01:00,21.5,
13-Jul-2022 02:00,20.7,
13-Jul-2022 03:00,26.9,
13-Jul-2022 04:00,19.9,
13-Jul-2022 05:00,26.6,
13-Jul-2022 06:00,30.5,
13-Jul-2022 07:00,28.6,
13-Jul-2022 08:00,28.3,
13-Jul-2022 09:00,15.7,
13-Jul-2022 10:00,14.9,
13-Jul-2022 11:00,18.2,
13-Jul-2022 12:00,15.5,
13-Jul-2022 13:00,12.5,
13-Jul-2022 14:00,12.2,
13-Jul-2022 15:00,16.6,
13-Jul-2022 16:00,22.8,
13-Jul-2022 17:00,30.7,
13-Jul-2022 18:00,24.8,
13-Jul-2022 19:00,20.7,
13-Jul-2022 20:00,18,
13-Jul-2022 21:00,16.1,
13-Jul-2022 22:00,19.7,
13-Jul-2022 23:00,24.3,
14-Jul-2022 00:00,18.3,
14-Jul-2022 01:00,15.3,
14-Jul-2022 02:00,15.1,
14-Jul-2022 03:00,16.9,
14-Jul-2022 04:00,24.2,
14-Jul-2022 05:00,21.4,
14-Jul-2022 06:00,22.2,
14-Jul-2022 07:00,29.2,
14-Jul-2022 08:00,46.9,
14-Jul-2022 09:00,48.3,
14-Jul-2022 10:00,43.8,
14-Jul-2022 11:00,31.4,
14-Jul-2022 12:00,18.9,
14-Jul-2022 13:00,13.9,
14-Jul-2022 14:00,23.2,
14-Jul-2022 15:00,20.6,
14-Jul-2022 16:00,30,
14-Jul-2022 17:00,56.1,
14-Jul-2022 18:00,28.1,
14-Jul-2022 19:00,26.1,
14-Jul-2022 20:00,12,
14-Jul-2022 21:00,19.3,
14-Jul-2022 22:00,25.3,
14-Jul-2022 23:00,19.5,
15-Jul-2022 00:00,18.4,
15-Jul-2022 01:00,26.2,
15-Jul-2022 02:00,25.5,
15-Jul-2022 03:00,27.8,
15-Jul-2022 04:00,29.8,
15-Jul-2022 05:00,44.9,
15-Jul-2022 06:00,21,
15-Jul-2022 07:00,26,
15-Jul-2022 08:00,27.9,
15-Jul-2022 09:00,25.8,
15-Jul-2022 10:00,19.5,
15-Jul-2022 11:00,20,
15-Jul-2022 12:00,20.2,
15-Jul-2022 13:00,17.7,
15-Jul-2022 14:00,20.1,
15-Jul-2022 15:00,15,
15-Jul-2022 16:00,15,
15-Jul-2022 17:00,13.4,
15-Jul-2022 18:00,13.4,
15-Jul-2022 19:00,33.3,
15-Jul-2022 20:00,32.4,
15-Jul-2022 21:00,25.5,
15-Jul-2022 22:00,26.6,
15-Jul-2022 23:00,28.5,
16-Jul-2022 00:00,26.2,
16-Jul-2022 01:00,25.4,
16-Jul-2022 02:00,25.1,
16-Jul-2022 03:00,22.6,
16-Jul-2022 04:00,21.5,
16-Jul-2022 05:00,23.3,
16-Jul-2022 06:00,43.1,
16-Jul-2022 07:00,70.5,
16-Jul-2022 08:00,70.5,
16-Jul-2022 09:00,32.3,
16-Jul-2022 10:00,23.4,
16-Jul-2022 11:00,26.8,
16-Jul-2022 12:00,20.1,
16-Jul-2022 13:00,17.6,
16-Jul-2022 14:00,14.5,
16-Jul-2022 15:00,14.5,
16-Jul-2022 16:00,17.1,
16-Jul-2022 17:00,28.4,
16-Jul-2022 18:00,21.1,
16-Jul-2022 19:00,18.9,
16-Jul-2022 20:00,17.3,
16-Jul-2022 21:00,20,
16-Jul-2022 22:00,22.4,
16-Jul-2022 23:00,19.2,
17-Jul-2022 00:00,20.7,
17-Jul-2022 01:00,21.2,
17-Jul-2022 02:00,19,
17-Jul-2022 03:00,17.5,
17-Jul-2022 04:00,17.2,
17-Jul-2022 05:00,13.9,
17-Jul-2022 06:00,17.8,
17-Jul-2022 07:00,12.3,
17-Jul-2022 08:00,16.8,
17-Jul-2022 09:00,14.7,
17-Jul-2022 10:00,20.7,
17-Jul-2022 11:00,23.5,
17-Jul-2022 12:00,18.6,
17-Jul-2022 13:00,19.9,
17-Jul-2022 14:00,11.6,
17-Jul-2022 15:00,11.6,
17-Jul-2022 16:00,16.9,
17-Jul-2022 17:00,24.2,
17-Jul-2022 18:00,22.5,
17-Jul-2022 19:00,29.4,
17-Jul-2022 20:00,23.6,
17-Jul-2022 21:00,23.6,
17-Jul-2022 22:00,17.1,
17-Jul-2022 23:00,19.3,
18-Jul-2022 00:00,22,
18-Jul-2022 01:00,19.1,
18-Jul-2022 02:00,19,
18-Jul-2022 03:00,17.7,
18-Jul-2022 04:00,25.7,
18-Jul-2022 05:00,28.6,
18-Jul-2022 06:00,22.7,
18-Jul-2022 07:00,25.3,
18-Jul-2022 08:00,26.6,
18-Jul-2022 09:00,27.8,
18-Jul-2022 10:00,26.3,
18-Jul-2022 11:00,28.5,
18-Jul-2022 12:00,28.9,
18-Jul-2022 13:00,23.3,
18-Jul-2022 14:00,25.2,
18-Jul-2022 15:00,35.8,
18-Jul-2022 16:00,33.8,
18-Jul-2022 17:00,17.3,
18-Jul-2022 18:00,29.8,
18-Jul-2022 19:00,18.7,
18-Jul-2022 20:00,16.1,
18-Jul-2022 21:00,27.3,
18-Jul-2022 22:00,17.4,
18-Jul-2022 23:00,21,
19-Jul-2022 00:00,21.9,
19-Jul-2022 01:00,19.2,
19-Jul-2022 02:00,15.9,
19-Jul-2022 03:00,19.6,
19-Jul-2022 04:00,17.2,
19-Jul-2022 05:00,17.3,
19-Jul-2022 06:00,18.7,
19-Jul-2022 07:00,17.4,
19-Jul-2022 08:00,19.2,
19-Jul-2022 09:00,24.7,
19-Jul-2022 10:00,23.3,
19-Jul-2022 11:00,19.6,
19-Jul-2022 12:00,13.9,
19-Jul-2022 13:00,15.2,
19-Jul-2022 14:00,17.9,
19-Jul-2022 15:00,14.7,
19-Jul-2022 16:00,16,
19-Jul-2022 17:00,20.4,
19-Jul-2022 18:00,29.2,
19-Jul-2022 19:00,19.7,
19-Jul-2022 20:00,14.7,
19-Jul-2022 21:00,12.6,
19-Jul-2022 22:00,9.5,
19-Jul-2022 23:00,14.7,
20-Jul-2022 00:00,16.4,
20-Jul-2022 01:00,12.3,
20-Jul-2022 02:00,19.7,
20-Jul-2022 03:00,14.9,
20-Jul-2022 04:00,17.9,
20-Jul-2022 05:00,15,
20-Jul-2022 06:00,15.7,
20-Jul-2022 07:00,15.9,
20-Jul-2022 08:00,13.5,
20-Jul-2022 09:00,15.1,
20-Jul-2022 10:00,12.2,
20-Jul-2022 11:00,12.2,
20-Jul-2022 12:00,10.9,
20-Jul-2022 13:00,13.1,
20-Jul-2022 14:00,24.8,
20-Jul-2022 15:00,16.6,
20-Jul-2022 16:00,16.7,
20-Jul-2022 17:00,34.2,
20-Jul-2022 18:00,26.3,
20-Jul-2022 19:00,19.9,
20-Jul-2022 20:00,20.2,
20-Jul-2022 21:00,18.4,
20-Jul-2022 22:00,18.3,
20-Jul-2022 23:00,18.3,
21-Jul-2022 00:00,19.2,
21-Jul-2022 01:00,21.7,
21-Jul-2022 02:00,18.6,
21-Jul-2022 03:00,16.8,
21-Jul-2022 04:00,28.9,
21-Jul-2022 05:00,23.8,
21-Jul-2022 06:00,14.8,
21-Jul-2022 07:00,10.9,
21-Jul-2022 08:00,8.1,
21-Jul-2022 09:00,11.4,
21-Jul-2022 10:00,13.1,
21-Jul-2022 11:00,15.6,
21-Jul-2022 12:00,22.7,
21-Jul-2022 13:00,20.9,
21-Jul-2022 14:00,17.7,
21-Jul-2022 15:00,7.2,
21-Jul-2022 16:00,24.6,
21-Jul-2022 17:00,17,
21-Jul-2022 18:00,33.2,
21-Jul-2022 19:00,24.9,
21-Jul-2022 20:00,25.2,
21-Jul-2022 21:00,22,
21-Jul-2022 22:00,26,
21-Jul-2022 23:00,24.4,
22-Jul-2022 00:00,24.4,
22-Jul-2022 01:00,21.9,
22-Jul-2022 02:00,22.3,
22-Jul-2022 03:00,22.1,
22-Jul-2022 04:00,28.1,
22-Jul-2022 05:00,58.6,
22-Jul-2022 06:00,34.5,
22-Jul-2022 07:00,22.2,
22-Jul-2022 08:00,17.3,
22-Jul-2022 09:00,17,
22-Jul-2022 10:00,27.5,
22-Jul-2022 11:00,18.8,
22-Jul-2022 12:00,14.2,
22-Jul-2022 13:00,20.9,
22-Jul-2022 14:00,30.7,
22-Jul-2022 15:00,9.7,
22-Jul-2022 16:00,17.3,
22-Jul-2022 17:00,16.5,
22-Jul-2022 18:00,32.6,
22-Jul-2022 19:00,18.9,
22-Jul-2022 20:00,21.8,
22-Jul-2022 21:00,18.9,
22-Jul-2022 22:00,20.9,
22-Jul-2022 23:00,23.4,
23-Jul-2022 00:00,19.7,
23-Jul-2022 01:00,24.2,
23-Jul-2022 02:00,19.2,
23-Jul-2022 03:00,11.6,
23-Jul-2022 04:00,11,
23-Jul-2022 05:00,12,
23-Jul-2022 06:00,12.5,
23-Jul-2022 07:00,10.5,
23-Jul-2022 08:00,13.1,
23-Jul-2022 09:00,12,
23-Jul-2022 10:00,17.2,
23-Jul-2022 11:00,27.5,
23-Jul-2022 12:00,30.7,
23-Jul-2022 13:00,33.1,
23-Jul-2022 14:00,20.3,
23-Jul-2022 15:00,42.6,
23-Jul-2022 16:00,53.3,
23-Jul-2022 17:00,60.9,
23-Jul-2022 18:00,55.6,
23-Jul-2022 19:00,40.3,
23-Jul-2022 20:00,38.8,
23-Jul-2022 21:00,38.5,
23-Jul-2022 22:00,38.7,
23-Jul-2022 23:00,57.6,
24-Jul-2022 00:00,39.7,
24-Jul-2022 01:00,36.1,
24-Jul-2022 02:00,35.7,
24-Jul-2022 03:00,33.8,
24-Jul-2022 04:00,34.1,
24-Jul-2022 05:00,35.5,
24-Jul-2022 06:00,33.4,
24-Jul-2022 07:00,33.4,
24-Jul-2022 08:00,26.3,
24-Jul-2022 09:00,24.6,
24-Jul-2022 10:00,18.6,
24-Jul-2022 11:00,18,
24-Jul-2022 12:00,19.8,
24-Jul-2022 13:00,11.8,
24-Jul-2022 14:00,8.3,
24-Jul-2022 15:00,14.9,
24-Jul-2022 16:00,15.7,
24-Jul-2022 17:00,9,
24-Jul-2022 18:00,18,
24-Jul-2022 19:00,18.1,
24-Jul-2022 20:00,13.2,
24-Jul-2022 21:00,9.6,
24-Jul-2022 22:00,8.8,
24-Jul-2022 23:00,13.7,
25-Jul-2022 00:00,10.9,
25-Jul-2022 01:00,13.4,
25-Jul-2022 02:00,10,
25-Jul-2022 03:00,11,
25-Jul-2022 04:00,14.5,
25-Jul-2022 05:00,23.7,
25-Jul-2022 06:00,16.3,
25-Jul-2022 07:00,20.4,
25-Jul-2022 08:00,17.6,
25-Jul-2022 09:00,18.9,
25-Jul-2022 10:00,22.1,
25-Jul-2022 11:00,17.6,
25-Jul-2022 12:00,18.3,
25-Jul-2022 13:00,19.7,
25-Jul-2022 14:00,16.1,
25-Jul-2022 15:00,26.6,
25-Jul-2022 16:00,28,
25-Jul-2022 17:00,23.2,
25-Jul-2022 18:00,40.5,
25-Jul-2022 19:00,29.6,
25-Jul-2022 20:00,29.6,
25-Jul-2022 21:00,40.8,
25-Jul-2022 22:00,34.4,
25-Jul-2022 23:00,37.9,
26-Jul-2022 00:00,37.1,
26-Jul-2022 01:00,35.8,
26-Jul-2022 02:00,23.7,
26-Jul-2022 03:00,28.4,
26-Jul-2022 04:00,28.7,
26-Jul-2022 05:00,31.7,
26-Jul-2022 06:00,57,
26-Jul-2022 07:00,29.2,
26-Jul-2022 08:00,,BA
26-Jul-2022 09:00,,BA
26-Jul-2022 10:00,,BA
26-Jul-2022 11:00,,BA
26-Jul-2022 12:00,27.1,
26-Jul-2022 13:00,21.2,
26-Jul-2022 14:00,23.9,
26-Jul-2022 15:00,31.4,
26-Jul-2022 16:00,30,
26-Jul-2022 17:00,23.9,
26-Jul-2022 18:00,19.3,
26-Jul-2022 19:00,25.4,
26-Jul-2022 20:00,22.4,
26-Jul-2022 21:00,23.6,
26-Jul-2022 22:00,20.6,
26-Jul-2022 23:00,20.4,
27-Jul-2022 00:00,20.4,
27-Jul-2022 01:00,21.2,
27-Jul-2022 02:00,21.8,
27-Jul-2022 03:00,22.7,
27-Jul-2022 04:00,23.5,
27-Jul-2022 05:00,27.6,
27-Jul-2022 06:00,30.2,
27-Jul-2022 07:00,21.6,
27-Jul-2022 08:00,22.2,
27-Jul-2022 09:00,21.3,
27-Jul-2022 10:00,19.2,
27-Jul-2022 11:00,24.5,
27-Jul-2022 12:00,25.2,
27-Jul-2022 13:00,23.8,
27-Jul-2022 14:00,32.2,
27-Jul-2022 15:00,25.4,
27-Jul-2022 16:00,29.9,
27-Jul-2022 17:00,79.2,
27-Jul-2022 18:00,14.2,
27-Jul-2022 19:00,9.8,
27-Jul-2022 20:00,9.9,
27-Jul-2022 21:00,10.1,
27-Jul-2022 22:00,10.2,
27-Jul-2022 23:00,10.6,
28-Jul-2022 00:00,8.6,
28-Jul-2022 01:00,10.3,
28-Jul-2022 02:00,11,
28-Jul-2022 03:00,9.3,
28-Jul-2022 04:00,11.2,
28-Jul-2022 05:00,11.4,
28-Jul-2022 06:00,10.7,
28-Jul-2022 07:00,12.9,
28-Jul-2022 08:00,12.7,
28-Jul-2022 09:00,10.7,
28-Jul-2022 10:00,13.1,
28-Jul-2022 11:00,23.1,
28-Jul-2022 12:00,32.9,
28-Jul-2022 13:00,33.8,
28-Jul-2022 14:00,34.3,
28-Jul-2022 15:00,41.3,
28-Jul-2022 16:00,37.5,
28-Jul-2022 17:00,35.4,
28-Jul-2022 18:00,21.5,
28-Jul-2022 19:00,51.8,
28-Jul-2022 20:00,17.3,
28-Jul-2022 21:00,26.7,
28-Jul-2022 22:00,25.5,
28-Jul-2022 23:00,32.8,
29-Jul-2022 00:00,32.8,
29-Jul-2022 01:00,28.6,
29-Jul-2022 02:00,29.9,
29-Jul-2022 03:00,30.8,
29-Jul-2022 04:00,30.3,
29-Jul-2022 05:00,28.9,
29-Jul-2022 06:00,28.6,
29-Jul-2022 07:00,29,
29-Jul-2022 08:00,30.3,
29-Jul-2022 09:00,30.2,
29-Jul-2022 10:00,31.5,
29-Jul-2022 11:00,31.2,
29-Jul-2022 12:00,40.4,
29-Jul-2022 13:00,39.9,
29-Jul-2022 14:00,33.2,
29-Jul-2022 15:00,32.4,
29-Jul-2022 16:00,44.1,
29-Jul-2022 17:00,44.1,
29-Jul-2022 18:00,29.8,
29-Jul-2022 19:00,35.2,
29-Jul-2022 20:00,30.4,
29-Jul-2022 21:00,40,
29-Jul-2022 22:00,36.4,
29-Jul-2022 23:00,42.1,
30-Jul-2022 00:00,38.7,
30-Jul-2022 01:00,19,
30-Jul-2022 02:00,19.7,
30-Jul-2022 03:00,128.8,
30-Jul-2022 04:00,279.1,
30-Jul-2022 05:00,284.3,
30-Jul-2022 06:00,315.8,
30-Jul-2022 07:00,175.5,
30-Jul-2022 08:00,83.8,
30-Jul-2022 09:00,87.3,
30-Jul-2022 10:00,87.9,
30-Jul-2022 11:00,53.2,
30-Jul-2022 12:00,54.2,
30-Jul-2022 13:00,45.9,
30-Jul-2022 14:00,39.2,
30-Jul-2022 15:00,37.1,
30-Jul-2022 16:00,31.3,
30-Jul-2022 17:00,22.5,
30-Jul-2022 18:00,122.5,
30-Jul-2022 19:00,214.3,
30-Jul-2022 20:00,9.2,
30-Jul-2022 21:00,7.5,
30-Jul-2022 22:00,8.8,
30-Jul-2022 23:00,8.7,
31-Jul-2022 00:00,12,
31-Jul-2022 01:00,9.6,
31-Jul-2022 02:00,14.8,
31-Jul-2022 03:00,6.6,
31-Jul-2022 04:00,32.8,
31-Jul-2022 05:00,13.4,
31-Jul-2022 06:00,12.7,
31-Jul-2022 07:00,14.6,
31-Jul-2022 08:00,22.3,
31-Jul-2022 09:00,26.7,
31-Jul-2022 10:00,25,
31-Jul-2022 11:00,18.9,
31-Jul-2022 12:00,15.6,
31-Jul-2022 13:00,21.9,
31-Jul-2022 14:00,33.9,
31-Jul-2022 15:00,54,
31-Jul-2022 16:00,14.9,
31-Jul-2022 17:00,9.3,
31-Jul-2022 18:00,10.6,
31-Jul-2022 19:00,6.8,
31-Jul-2022 20:00,5.8,
31-Jul-2022 21:00,7.5,
31-Jul-2022 22:00,7.5,
31-Jul-2022 23:00,7,
